2022-090C (53348 NORAD) Tracking and Keplerian Element Data

This shows tracking and keplerian element data for the satellite.

Feedback or suggestion? Click here.




ElementValue
Catalog53348
Name2022-090C
Epoch Orbit1663
Epoch Day325.31010839
Epoch Year2022
RAAN37.8088
Inclination97.4607
Eccentricity0.0010937
Argument of Perigee254.2991
Mean Anonmoly191.3279
Mean Motion15.27166178
Decay Rate0.00016502
L11 53348U 22090C 22325.31010839 .00016502 00000+0 62064-3 0 9999
L22 53348 97.4607 37.8088 0010937 254.2991 191.3279 15.27166178 16636



Live tracking and technical data element details for 2022-090C (NORAD 53348). 2022-090C can be tracked NOW for your location showing map with azimuth and elevation plus other details from your city location.







IsCatalogInMostPopularTable: catalog: 53348, numindb: 4
Update: records affected: 1



GetName: 53348 2022-090C

Hit Count: updated at: Thu, 08 Dec 2022 10:25:28 GMT